TimeMDT,TemperatureF,Dew PointF,Humidity,Sea Level PressureIn,VisibilityMPH,Wind Direction,Wind SpeedMPH,Gust SpeedMPH,PrecipitationIn,Events,Conditions,WindDirDegrees,DateUTC
12:00 AM,55.4,48.2,77,29.88,-9999.0,Calm,Calm,-,N/A,,Unknown,0,2013-07-27 06:00:00
1:00 AM,50.0,43.9,79,29.89,-9999.0,East,1.2,-,N/A,,Unknown,80,2013-07-27 07:00:00
2:00 AM,47.7,44.4,89,29.89,-9999.0,Calm,Calm,-,N/A,,Unknown,0,2013-07-27 08:00:00
3:00 AM,45.3,42.1,88,29.90,-9999.0,WSW,1.2,-,N/A,,Unknown,250,2013-07-27 09:00:00
4:00 AM,42.8,41.0,93,29.90,-9999.0,Calm,Calm,-,N/A,,Unknown,0,2013-07-27 10:00:00
5:00 AM,41.5,40.6,97,29.92,-9999.0,Calm,Calm,-,N/A,,Unknown,0,2013-07-27 11:00:00
6:00 AM,55.2,54.3,97,29.88,-9999.0,ENE,5.8,-,N/A,,Unknown,60,2013-07-27 12:00:00
7:00 AM,56.8,51.3,82,29.89,-9999.0,NE,8.1,-,N/A,,Unknown,40,2013-07-27 13:00:00
8:00 AM,57.7,48.6,71,29.91,-9999.0,NE,9.2,19.6,N/A,,Unknown,40,2013-07-27 14:00:00
9:00 AM,59.0,46.8,64,29.93,-9999.0,NE,9.2,17.3,N/A,,Unknown,50,2013-07-27 15:00:00
10:00 AM,60.1,45.7,59,29.93,-9999.0,ENE,9.2,-,N/A,,Unknown,60,2013-07-27 16:00:00
11:00 AM,60.8,45.7,57,29.94,-9999.0,East,9.2,-,N/A,,Unknown,90,2013-07-27 17:00:00
12:00 PM,62.1,45.7,55,29.94,-9999.0,East,10.4,17.3,N/A,,Unknown,80,2013-07-27 18:00:00
1:00 PM,60.8,44.6,55,29.96,-9999.0,ENE,10.4,19.6,N/A,,Unknown,70,2013-07-27 19:00:00
2:00 PM,63.1,45.3,52,29.97,-9999.0,ENE,9.2,20.7,N/A,,Unknown,60,2013-07-27 20:00:00
3:00 PM,60.8,43.5,53,29.99,-9999.0,ENE,11.5,19.6,N/A,,Unknown,60,2013-07-27 21:00:00
4:00 PM,61.9,45.5,55,29.97,-9999.0,ENE,6.9,-,N/A,,Unknown,70,2013-07-27 22:00:00
5:00 PM,62.6,44.1,51,29.91,-9999.0,SE,6.9,-,N/A,,Unknown,130,2013-07-27 23:00:00
6:00 PM,63.7,42.6,46,29.88,-9999.0,ESE,3.5,-,N/A,,Unknown,120,2013-07-28 00:00:00
7:00 PM,63.1,43.0,48,29.88,-9999.0,East,4.6,-,N/A,,Unknown,80,2013-07-28 01:00:00
8:00 PM,60.1,43.0,53,29.90,-9999.0,NNE,3.5,-,N/A,,Unknown,30,2013-07-28 02:00:00
9:00 PM,58.8,45.7,62,29.91,-9999.0,NNE,10.4,18.4,N/A,,Unknown,30,2013-07-28 03:00:00
10:00 PM,56.8,45.7,66,29.94,-9999.0,NNE,8.1,-,N/A,,Unknown,30,2013-07-28 04:00:00
11:00 PM,54.3,45.3,72,29.96,-9999.0,NE,5.8,-,N/A,,Unknown,40,2013-07-28 05:00:00